When you browse on this site, cookies collect data to enhance your experience and personalize the content and advertising you see.
Visit our Privacy Policy to learn more. By continuing to use the site, you agree to this use of cookies and data.
  • în România
  • Lista ţărilor
  • Pe 7 zile
  • Temperatura apei
  • Hartă satelitară
  • Meteo pe hartă
  • Widget-uri
  • user-avatar
    Intrare

    Meteo pe oră la Elbasan

    Astăzi, 18 Ianuarie, Vineri

    Timp Temperatura Precipitaţii Vânt Presiune Umiditate
    00:00 +3°C° 0 mm 2 m/s 737 mmHg 63%
    01:00 +4°C° 0 mm 2 m/s 737 mmHg 71%
    02:00 +4°C° 0 mm 2 m/s 736 mmHg 73%
    03:00 +4°C° 0 mm 2 m/s 736 mmHg 76%
    04:00 +4°C° 0 mm 2 m/s 736 mmHg 78%
    05:00 +4°C° 0 mm 2 m/s 736 mmHg 79%
    06:00 +4°C° 0 mm 2 m/s 736 mmHg 80%
    07:00 +5°C° 0 mm 2 m/s 736 mmHg 81%
    08:00 +6°C° 0.1 mm 2 m/s 736 mmHg 82%
    09:00 +6°C° 0.1 mm 2 m/s 735 mmHg 82%
    10:00 +7°C° 0.1 mm 2 m/s 735 mmHg 83%
    11:00 +8°C° 0.4 mm 2 m/s 735 mmHg 82%
    12:00 +8°C° 0.4 mm 2 m/s 735 mmHg 82%
    13:00 +8°C° 0.4 mm 2 m/s 735 mmHg 81%
    14:00 +8°C° 0.1 mm 2 m/s 735 mmHg 82%
    15:00 +8°C° 0.1 mm 2 m/s 735 mmHg 83%
    16:00 +8°C° 0.1 mm 2 m/s 735 mmHg 83%
    17:00 +7°C° 0 mm 2 m/s 735 mmHg 83%
    18:00 +6°C° 0 mm 2 m/s 735 mmHg 83%
    19:00 +5°C° 0 mm 2 m/s 735 mmHg 83%
    20:00 +5°C° 0 mm 2 m/s 735 mmHg 83%
    21:00 +5°C° 0 mm 2 m/s 735 mmHg 82%
    22:00 +5°C° 0 mm 2 m/s 735 mmHg 82%
    23:00 +5°C° 0 mm 2 m/s 735 mmHg 82%

    Mâine, 19 Ianuarie, Sâmbătă

    Timp Temperatura Precipitaţii Vânt Presiune Umiditate
    00:00 +5°C° 0 mm 2 m/s 735 mmHg 82%
    01:00 +5°C° 0 mm 2 m/s 735 mmHg 82%
    02:00 +5°C° 0 mm 2 m/s 735 mmHg 82%
    03:00 +5°C° 0 mm 2 m/s 735 mmHg 82%
    04:00 +5°C° 0 mm 2 m/s 735 mmHg 82%
    05:00 +5°C° 0 mm 2 m/s 735 mmHg 82%
    06:00 +5°C° 0 mm 2 m/s 735 mmHg 82%
    07:00 +5°C° 0 mm 2 m/s 735 mmHg 82%
    08:00 +6°C° 0 mm 2 m/s 735 mmHg 80%
    09:00 +8°C° 0 mm 2 m/s 735 mmHg 78%
    10:00 +9°C° 0 mm 2 m/s 736 mmHg 76%
    11:00 +10°C° 0 mm 2 m/s 735 mmHg 75%
    12:00 +10°C° 0 mm 2 m/s 735 mmHg 73%
    13:00 +12°C° 0 mm 2 m/s 735 mmHg 71%
    14:00 +10°C° 0 mm 2 m/s 734 mmHg 74%
    15:00 +10°C° 0 mm 2 m/s 734 mmHg 77%
    16:00 +9°C° 0 mm 2 m/s 734 mmHg 80%
    17:00 +8°C° 0 mm 2 m/s 734 mmHg 81%
    18:00 +7°C° 0 mm 2 m/s 734 mmHg 82%
    19:00 +6°C° 0 mm 2 m/s 734 mmHg 84%
    20:00 +6°C° 0 mm 2 m/s 734 mmHg 83%
    21:00 +6°C° 0 mm 2 m/s 734 mmHg 83%
    22:00 +6°C° 0 mm 2 m/s 734 mmHg 82%
    23:00 +6°C° 0.1 mm 2 m/s 734 mmHg 82%

    Poimâine, 20 Ianuarie, Duminică

    Timp Temperatura Precipitaţii Vânt Presiune Umiditate
    00:00 +6°C° 0.1 mm 2 m/s 734 mmHg 82%
    01:00 +6°C° 0.1 mm 2 m/s 734 mmHg 82%
    02:00 +6°C° 0.1 mm 2 m/s 734 mmHg 82%
    03:00 +6°C° 0.1 mm 2 m/s 733 mmHg 82%
    04:00 +6°C° 0.1 mm 2 m/s 733 mmHg 82%
    05:00 +5°C° 0 mm 2 m/s 733 mmHg 82%
    06:00 +5°C° 0 mm 2 m/s 733 mmHg 82%
    07:00 +5°C° 0 mm 2 m/s 733 mmHg 81%
    08:00 +6°C° 0.1 mm 2 m/s 734 mmHg 79%
    09:00 +9°C° 0.1 mm 1 m/s 734 mmHg 76%
    10:00 +10°C° 0.1 mm 1 m/s 734 mmHg 74%
    11:00 +10°C° 0.1 mm 1 m/s 734 mmHg 74%
    12:00 +11°C° 0.1 mm 1 m/s 733 mmHg 74%
    13:00 +11°C° 0.1 mm 1 m/s 733 mmHg 74%
    14:00 +11°C° 0.3 mm 1 m/s 733 mmHg 78%
    15:00 +10°C° 0.3 mm 1 m/s 733 mmHg 83%
    16:00 +9°C° 0.3 mm 1 m/s 733 mmHg 87%
    17:00 +9°C° 0 mm 1 m/s 733 mmHg 89%
    18:00 +8°C° 0 mm 1 m/s 734 mmHg 91%
    19:00 +7°C° 0 mm 1 m/s 734 mmHg 93%
    20:00 +7°C° 0 mm 1 m/s 734 mmHg 92%
    21:00 +7°C° 0 mm 1 m/s 734 mmHg 92%
    22:00 +6°C° 0 mm 1 m/s 734 mmHg 91%
    23:00 +6°C° 0 mm 1 m/s 734 mmHg 90%

    21 Ianuarie, Luni

    Timp Temperatura Precipitaţii Vânt Presiune Umiditate
    00:00 +6°C° 0 mm 1 m/s 735 mmHg 89%
    01:00 +6°C° 0 mm 1 m/s 735 mmHg 88%
    02:00 +5°C° 0 mm 1 m/s 735 mmHg 87%
    03:00 +5°C° 0 mm 1 m/s 734 mmHg 86%
    04:00 +5°C° 0 mm 1 m/s 734 mmHg 86%
    05:00 +5°C° 0 mm 1 m/s 735 mmHg 85%
    06:00 +5°C° 0 mm 1 m/s 735 mmHg 84%
    07:00 +4°C° 0 mm 2 m/s 735 mmHg 83%
    08:00 +6°C° 0 mm 1 m/s 735 mmHg 78%
    09:00 +8°C° 0 mm 1 m/s 736 mmHg 74%
    10:00 +10°C° 0 mm 1 m/s 736 mmHg 69%
    11:00 +10°C° 0 mm 1 m/s 736 mmHg 65%
    12:00 +11°C° 0 mm 1 m/s 736 mmHg 62%
    13:00 +11°C° 0 mm 0 m/s 736 mmHg 58%
    14:00 +11°C° 0 mm 1 m/s 736 mmHg 61%
    15:00 +11°C° 0 mm 1 m/s 736 mmHg 64%
    16:00 +10°C° 0 mm 1 m/s 735 mmHg 67%
    17:00 +9°C° 0 mm 1 m/s 736 mmHg 70%
    18:00 +7°C° 0 mm 2 m/s 736 mmHg 73%
    19:00 +6°C° 0 mm 2 m/s 736 mmHg 76%
    20:00 +6°C° 0 mm 2 m/s 736 mmHg 77%
    21:00 +6°C° 0 mm 2 m/s 736 mmHg 78%
    22:00 +4°C° 0 mm 3 m/s 737 mmHg 78%
    23:00 +4°C° 0 mm 3 m/s 736 mmHg 78%

    22 Ianuarie, Marţi

    Timp Temperatura Precipitaţii Vânt Presiune Umiditate
    00:00 +4°C° 0 mm 3 m/s 736 mmHg 78%
    01:00 +4°C° 0 mm 3 m/s 736 mmHg 78%
    02:00 +4°C° 0 mm 3 m/s 736 mmHg 79%
    03:00 +4°C° 0 mm 3 m/s 735 mmHg 79%
    04:00 +4°C° 0 mm 3 m/s 735 mmHg 79%
    05:00 +4°C° 0 mm 3 m/s 735 mmHg 79%
    06:00 +4°C° 0 mm 3 m/s 735 mmHg 79%
    07:00 +4°C° 0 mm 3 m/s 734 mmHg 80%
    08:00 +5°C° 0 mm 3 m/s 734 mmHg 76%
    09:00 +7°C° 0 mm 3 m/s 734 mmHg 73%
    10:00 +8°C° 0 mm 3 m/s 734 mmHg 70%
    11:00 +8°C° 0 mm 4 m/s 733 mmHg 67%
    12:00 +10°C° 0 mm 4 m/s 732 mmHg 65%
    13:00 +10°C° 0 mm 4 m/s 732 mmHg 62%
    14:00 +10°C° 0 mm 4 m/s 731 mmHg 65%
    15:00 +9°C° 0 mm 3 m/s 730 mmHg 68%
    16:00 +9°C° 0 mm 3 m/s 729 mmHg 70%
    17:00 +8°C° 0.1 mm 3 m/s 729 mmHg 72%
    18:00 +8°C° 0.1 mm 3 m/s 728 mmHg 74%
    19:00 +6°C° 0.1 mm 4 m/s 727 mmHg 76%
    20:00 +6°C° 0.5 mm 4 m/s 727 mmHg 77%
    21:00 +7°C° 0.5 mm 3 m/s 727 mmHg 78%
    22:00 +7°C° 0.5 mm 3 m/s 726 mmHg 79%
    23:00 +5°C° 0 mm 3 m/s 726 mmHg 80%

    23 Ianuarie, Miercuri

    Timp Temperatura Precipitaţii Vânt Presiune Umiditate
    00:00 +5°C° 0 mm 3 m/s 725 mmHg 80%
    01:00 +5°C° 0 mm 3 m/s 725 mmHg 81%
    02:00 +4°C° 0 mm 3 m/s 724 mmHg 82%
    03:00 +4°C° 0 mm 3 m/s 724 mmHg 83%
    04:00 +5°C° 0 mm 2 m/s 723 mmHg 84%
    05:00 +5°C° 0.4 mm 2 m/s 723 mmHg 85%
    06:00 +4°C° 0.4 mm 3 m/s 723 mmHg 86%
    07:00 +5°C° 0.4 mm 3 m/s 722 mmHg 86%
    08:00 +7°C° 0.1 mm 3 m/s 722 mmHg 81%
    09:00 +7°C° 0.1 mm 4 m/s 722 mmHg 76%
    10:00 +8°C° 0.1 mm 4 m/s 722 mmHg 71%
    11:00 +7°C° 2 mm 5 m/s 721 mmHg 77%
    12:00 +7°C° 2 mm 5 m/s 720 mmHg 82%
    13:00 +5°C° 2 mm 6 m/s 720 mmHg 88%
    14:00 +6°C° 3.4 mm 5 m/s 720 mmHg 90%
    15:00 +6°C° 3.4 mm 4 m/s 720 mmHg 92%
    16:00 +5°C° 3.4 mm 3 m/s 719 mmHg 94%
    17:00 +5°C° 0.9 mm 3 m/s 720 mmHg 94%
    18:00 +5°C° 0.9 mm 3 m/s 720 mmHg 93%
    19:00 +6°C° 0.9 mm 2 m/s 720 mmHg 93%
    20:00 +6°C° 0.1 mm 2 m/s 720 mmHg 90%
    21:00 +5°C° 0.1 mm 2 m/s 720 mmHg 88%
    22:00 +5°C° 0.1 mm 2 m/s 720 mmHg 85%
    23:00 +5°C° 0.1 mm 2 m/s 719 mmHg 85%
    Arată mai mult